Retour au catalogue

CZ-4B DEB

ActifPO
NORAD 29216·DEBRIS·🇨🇳 China

Lancé May 15, 2002 depuis Taiyuan Satellite Launch Center

Loading…

Prochains Passages (prochaines 24 heures)

TLE

FraisSource: Space-Track

Époque: Sep 12, 2026, 19:31 UTC

1 29216U 02024G   26255.81340137  .00000229  00000-0  25965-3 0  9998
2 29216  98.8542  28.9367 0224995 229.1187 129.0275 13.69289211711438

Suivez CZ-4B DEB en temps réel avec AllMySat

Download on the App Store